TimeCST,TemperatureF,Dew PointF,Humidity,Sea Level PressureIn,VisibilityMPH,Wind Direction,Wind SpeedMPH,Gust SpeedMPH,PrecipitationIn,Events,Conditions,WindDirDegrees,DateUTC
12:35 AM,23.0,19.4,86,30.17,5.0,NNW,8.1,-,0.00,Snow,Light Snow,340,2013-03-01 06:35:00
12:52 AM,23.0,19.9,88,30.23,7.0,NNW,8.1,-,0.00,,Overcast,340,2013-03-01 06:52:00
1:52 AM,23.0,19.9,88,30.23,8.0,NNW,9.2,-,N/A,,Overcast,340,2013-03-01 07:52:00
2:52 AM,23.0,19.0,85,30.23,9.0,NNW,9.2,-,N/A,,Overcast,340,2013-03-01 08:52:00
3:52 AM,21.9,17.1,82,30.24,10.0,NNW,10.4,-,N/A,,Overcast,340,2013-03-01 09:52:00
4:05 AM,21.2,17.6,86,30.18,10.0,North,10.4,-,N/A,,Overcast,350,2013-03-01 10:05:00
5:52 AM,19.9,15.1,81,30.27,10.0,North,9.2,-,N/A,,Overcast,350,2013-03-01 11:52:00
6:52 AM,18.0,12.9,81,30.28,10.0,North,10.4,-,N/A,,Overcast,350,2013-03-01 12:52:00
7:03 AM,17.6,12.2,79,30.22,9.0,North,10.4,-,N/A,,Overcast,350,2013-03-01 13:03:00
7:52 AM,19.0,14.0,81,30.30,10.0,North,10.4,-,N/A,,Overcast,360,2013-03-01 13:52:00
8:52 AM,19.9,16.0,85,30.32,9.0,North,10.4,-,N/A,,Overcast,10,2013-03-01 14:52:00
9:52 AM,21.9,17.1,82,30.33,6.0,NNE,12.7,-,N/A,,Haze,30,2013-03-01 15:52:00
10:52 AM,23.0,16.0,74,30.34,8.0,NNE,11.5,-,N/A,,Overcast,30,2013-03-01 16:52:00
11:52 AM,23.0,16.0,74,30.34,10.0,NNE,13.8,-,N/A,,Overcast,20,2013-03-01 17:52:00
12:52 PM,23.0,14.0,68,30.34,10.0,North,11.5,-,N/A,,Overcast,10,2013-03-01 18:52:00
1:52 PM,24.1,15.1,69,30.34,10.0,NNE,11.5,-,N/A,,Overcast,20,2013-03-01 19:52:00
2:52 PM,24.1,15.1,69,30.34,10.0,North,11.5,-,N/A,,Overcast,10,2013-03-01 20:52:00
3:52 PM,24.1,17.1,75,30.34,10.0,North,13.8,-,N/A,,Overcast,360,2013-03-01 21:52:00
4:52 PM,23.0,15.1,72,30.36,10.0,North,12.7,-,N/A,,Overcast,10,2013-03-01 22:52:00
5:52 PM,21.9,15.1,75,30.37,10.0,North,10.4,-,N/A,,Overcast,10,2013-03-01 23:52:00
6:52 PM,21.0,15.1,78,30.39,10.0,North,10.4,-,N/A,,Overcast,360,2013-03-02 00:52:00
7:52 PM,21.0,15.1,78,30.39,10.0,North,10.4,-,N/A,,Overcast,350,2013-03-02 01:52:00
8:52 PM,19.9,15.1,81,30.40,10.0,North,11.5,-,N/A,,Overcast,350,2013-03-02 02:52:00
9:52 PM,16.0,12.0,84,30.40,10.0,NW,8.1,-,N/A,,Scattered Clouds,320,2013-03-02 03:52:00
10:52 PM,10.0,7.0,87,30.39,10.0,WNW,8.1,-,N/A,,Clear,300,2013-03-02 04:52:00
11:52 PM,9.0,6.1,88,30.39,10.0,WNW,8.1,-,N/A,,Clear,300,2013-03-02 05:52:00